Regional Weather Roundup
Issued by NWS

Home | Current Version | Previous Version | Text Only | Print | Product List | Glossary On
Versions: 1 2 3 4 5 6 7 8 9 10 11 12 13 14 15 16 17 18 19 20 21 22 23 24 25 26 27 28 29 30 31 32 33 34 35 36 37 38 39 40 41 42 43 44 45 46 47 48 49 50
000
ASUS43 KMPX 272310
RWRMN
WEATHER ROUNDUP FOR MINNESOTA
NATIONAL WEATHER SERVICE TWIN CITIES/CHANHASSEN MN
600 PM CDT FRI MAR 27 2015


NOTE: "FAIR" INDICATES FEW OR NO CLOUDS BELOW 12,000 FEET WITH NO
SIGNIFICANT WEATHER AND/OR OBSTRUCTIONS TO VISIBILITY. N/A MEANS
CURRENT SKY AND/OR WEATHER CONDITIONS ARE NOT AVAILABLE.

MNZ060>063-068>070-280000-
   Twin Cities Metro

CITY           SKY/WX    TMP DP  RH WIND       PRES   REMARKS
TWIN CITIES    PTSUNNY   33   6  32 SW8       30.15S WCI  26
ST PAUL        SUNNY     34   8  33 S10       30.16S WCI  26
CRYSTAL        MOSUNNY   35   6  29 SW10      30.14S WCI  27
BLAINE         MOSUNNY   37   0  20 CALM      30.14S
LAKEVILLE      MOSUNNY   28   5  37 S5        30.16S WCI  23
EDEN PRAIRIE   MOSUNNY   31   6  35 SW5       30.15S WCI  26
SOUTH ST PAUL  MOSUNNY   34   8  34 S7        30.15S WCI  27
LAKE ELMO      FAIR      34   9  35 SW7       30.16R WCI  28
$$
MNZ001>005-007-008-013>017-022>024-027-028-280000-
   Northwest Minnesota

CITY           SKY/WX    TMP DP  RH WIND       PRES   REMARKS
BEMIDJI        CLOUDY    34   4  28 W5        30.07S WCI  30
HALLOCK        FLURRIES  30  23  74 S13       30.08F WCI  20
ROSEAU         PTSUNNY   34  16  47 S5        30.09F WCI  30
WARROAD        PTSUNNY   28  18  64 E3        30.10S
THIEF RVR FALL CLOUDY    30  16  55 S8        30.10S WCI  23
CROOKSTON      CLOUDY    34  18  51 S15       30.11S WCI  24
FOSSTON        CLOUDY    32   7  34 CALM      30.09S
DETROIT LAKES  CLOUDY    32   9  37 SW5       30.09S WCI  27
MOORHEAD       CLOUDY    36   7  30 SE5       30.10R
PARK RAPIDS    CLOUDY    35   2  24 S3        30.07S
MAHNOMEN       CLOUDY    33   7  34 S8        30.09S WCI  25
$$
MNZ006-009>011-018-025>026-280000-
   North Central Minnesota

CITY           SKY/WX    TMP DP  RH WIND       PRES   REMARKS
BAUDETTE       PTSUNNY   33   7  33 E6        30.08F WCI  28
FLAG ISLAND    CLOUDY    27  10  50 SE6       30.09F WCI  20
INTL FALLS     SUNNY     34   3  27 E5        30.09S WCI  30
WASKISH        PTSUNNY   32   9  37 CALM      30.10S
BIG FORK       MOSUNNY   34   1  25 CALM      30.10R
LONGVILLE      CLOUDY    34   1  25 SE6       30.09S WCI  29
GRAND RAPIDS   PTSUNNY   34   1  25 SE5       30.09S WCI  30
CRANE LAKE     SUNNY     34  -2  21 NW1       30.12S
ORR            SUNNY     34  -6  18 CALM      30.07S
COOK           SUNNY     34   0  23 SW3       30.10S
WALKER         CLOUDY    32   4  30 E5        30.08S WCI  27
$$
MNZ012-019>021-037-280000-
   Northeast Minnesota

CITY           SKY/WX    TMP DP  RH WIND       PRES   REMARKS
DULUTH         SUNNY     29   3  33 SE9       30.12S WCI  20
ELY            SUNNY     34  -4  19 W6        30.09S WCI  29
HIBBING        MOSUNNY   34  -3  20 CALM      30.09F
EVELETH        SUNNY     34   0  23 W5        30.10S WCI  30
DULUTH HARBOR  SUNNY     28  12  50 CALM      30.18S
TWO HARBORS    SUNNY     30   7  37 SE6       30.14S WCI  24
SILVER BAY     SUNNY     27   3  36 SE5       30.14S WCI  21
GRAND MARAIS     N/A     22  10  60 SW3       30.22S
G MARAIS ARPRT SUNNY     18   3  53 S8        30.13R WCI   7
$$
MNZ029>031-032-039>041-046>048-054>057-064-280000-
   West Central Minnesota

CITY           SKY/WX    TMP DP  RH WIND       PRES   REMARKS
FERGUS FALLS   PTSUNNY   34   3  27 S9        30.12R WCI  26
WHEATON        CLOUDY    34  10  37 SE8       30.10S WCI  27
MORRIS         CLOUDY    34  18  51 SE10      30.08F WCI  26
ALEXANDRIA     CLOUDY    31  12  45 S9        30.09F WCI  23
ELBOW LAKE     FAIR      32  12  43 S12       30.08S WCI  23
WADENA         CLOUDY    34   7  32 S6        30.08S WCI  29
GLENWOOD       CLOUDY    30  16  55 S7        30.10F WCI  23
APPLETON       CLOUDY    37   7  28 S7        30.09S
BENSON         CLOUDY    36  10  35 S6        30.10F
ORTONVILLE     CLOUDY    37   5  25 S7        30.07F
MADISON        CLOUDY    39   7  26 S9        30.08F
WILLMAR        FAIR      34  16  47 SE6       30.13F WCI  29
$$
MNZ033>034-036-042>043-049>051-058-059-280000-
   Central Minnesota

CITY           SKY/WX    TMP DP  RH WIND       PRES   REMARKS
ST CLOUD       PTSUNNY   34   4  28 S8        30.13S WCI  27
SAUK CENTRE    FAIR      31  11  43 S9        30.11F WCI  23
PAYNESVILLE    CLOUDY    28  11  50 SE7       30.14S WCI  21
AITKIN         PTSUNNY   36  -8  15 CALM      30.09F
PINE RIVER     CLOUDY    34   9  35 SE7       30.12S WCI  28
BRAINERD       CLOUDY    34  -1  22 SW6       30.10F WCI  29
STAPLES        CLOUDY    34   3  27 S6        30.09S WCI  29
LONG PRAIRIE   CLOUDY    32  10  40 S7        30.10F WCI  26
LITTLE FALLS   PTSUNNY   32   3  29 SW5       30.11F WCI  27
LITCHFIELD     PTSUNNY   30  10  43 CALM      30.14F
BUFFALO        PTSUNNY   32  12  43 SW8       30.16S WCI  25
MAPLE LAKE     PTSUNNY   34  15  45 SW9       30.15S WCI  26
$$
MNZ037-044-045-052-053-280000-
   East Central Minnesota

CITY           SKY/WX    TMP DP  RH WIND       PRES   REMARKS
PRINCETON      PTSUNNY   36   3  25 S5        30.13S
MORA           MOSUNNY   32   3  29 SE3       30.15S
CAMBRIDGE      MOSUNNY   36  14  41 CALM      30.12S
RUSH CITY      SUNNY     35   2  25 CALM      30.14S
MOOSE LAKE     SUNNY     34   3  27 CALM      30.10F
HINCKLEY       FAIR      34   5  29 S5        30.13F WCI  30
CLOQUET        SUNNY     34   0  23 SE7       30.11S WCI  28
MCGREGOR       MOSUNNY   32  -2  23 S6        30.12S WCI  26
$$
MNZ071>073-080-081-089-090-097-098-280000-
   Southwest Minnesota

CITY           SKY/WX    TMP DP  RH WIND       PRES   REMARKS
MONTEVIDEO     CLOUDY    36  12  38 S9        30.11F
GRANITE FALLS  CLOUDY    36  12  38 SE7       30.11F
CANBY          CLOUDY    37   3  24 S6        30.08F
MARSHALL       CLOUDY    36   7  30 S9        30.10F
REDWOOD FALLS  CLOUDY    36  10  34 CALM      30.11F
OLIVIA         CLOUDY    30  19  64 E8        30.12S WCI  23
PIPESTONE      CLOUDY    34  10  37 SW10      30.06F WCI  26
WINDOM         CLOUDY    37   7  28 SW10      30.10S
WORTHINGTON    CLOUDY    34   9  35 SW12      30.10F WCI  25
JACKSON        CLOUDY    36   9  32 SW12      30.11R
TRACY          CLOUDY    36   9  32 SW9       30.10S
SLAYTON        CLOUDY    34   5  29 SW8       30.09F WCI  27
$$
MNZ065>067-074>077-082>085-091>093-280000-
   South Central Minnesota

CITY           SKY/WX    TMP DP  RH WIND       PRES   REMARKS
MANKATO        PTSUNNY   30  10  43 E8        30.15S WCI  23
NEW ULM        MOSUNNY   34  16  47 S6        30.13S WCI  29
ST JAMES       PTSUNNY   37  10  32 S3        30.13S
FAIRMONT       PTSUNNY   36   9  32 S3        30.11F
GLENCOE        PTSUNNY   31  10  42 E3        30.15S
FARIBAULT      MOSUNNY   30   7  37 CALM      30.16S
OWATONNA       SUNNY     28   5  37 CALM      30.16R
WASECA         MOSUNNY   32  14  47 E3        30.17S
ALBERT LEA     SUNNY     30  12  47 NE5       30.14S WCI  25
$$
MNZ078>079-086>088-094>096-280000-
   Southeast Minnesota

CITY           SKY/WX    TMP DP  RH WIND       PRES   REMARKS
ROCHESTER      SUNNY     27  10  49 SW3       30.15F
RED WING       SUNNY     34   3  27 W3        30.16R
STANTON        SUNNY     31   2  28 SW3       30.15S
DODGE CENTER   SUNNY     27   5  39 CALM      30.15S
WINONA         SUNNY     34  12  40 SW5       30.17S WCI  30
AUSTIN         SUNNY     27  10  50 E5        30.15S WCI  21
PRESTON        SUNNY     28   9  45 CALM      30.15F
$$
ABBREVIATIONS USED IN REMARKS
   TC - TEMPERATURES IN CELSIUS
  WCI - WIND CHILL INDEX
   HX - HEAT INDEX
  VSB - VISIBILITY
$$



USA.gov is the U.S. government's official web portal to all federal, state and local government web resources and services.